Location: Rio Negrinho
(26.2394°S, 49.4999°W)
Time: 22:37:23
(UTC+00:00)

USA 215 - Pass Details

Date: 07 June 2020
Orbit: 1098 x 1110 km, 123.0° (Epoch: 06 July)

Event Time Altitude Azimuth Distance (km) Brightness Sun altitude
Rises 07:09:49 0° 134° (SE) 3,948 6.6 -37.4°
Reaches altitude 10° 07:12:23 10° 130° (SE) 2,986 5.9 -36.8°
Maximum altitude 07:18:49 54° 53° (NE) 1,329 3.8 -35.4°
Enters shadow 07:20:15 46° 13° (NNE) 1,455 3.9 -35.1°
